Regional Weather Roundup
Issued by NWS Glasgow, MT

Home | Current Version | Previous Version | Text Only | Print | Product List | Glossary On
Versions: 1 2 3 4 5 6 7 8 9 10 11 12 13 14 15 16 17 18 19 20 21 22 23 24 25 26 27 28 29 30 31 32 33 34 35 36 37 38 39 40 41 42 43 44 45 46 47 48 49 50
000
ASUS45 KGGW 251515
RWRGGW
HOURLY WEATHER ROUNDUP FOR NORTHEAST MONTANA
NATIONAL WEATHER SERVICE GLASGOW MONTANA
900 AM MDT MON MAY 25 2015

NOTE: "FAIR" INDICATES FEW OR NO CLOUDS BELOW 12,000 FEET WITH NO
SIGNIFICANT WEATHER AND/OR OBSTRUCTIONS TO VISISBILITY.

NORTHEAST MONTANA


CITY           SKY/WX    TMP DP  RH WIND       PRES   REMARKS
GLASGOW        MOSUNNY   61  47  59 SW3       29.88F
WOLF POINT     MOSUNNY   62  47  57 CALM      29.89F
JORDAN           N/A     62  50  64 CALM      29.89F
WINNETT          N/A     61  45  55 N3          N/A
SIDNEY         PTSUNNY   59  52  77 CALM      29.90R
GLENDIVE       PTSUNNY   61  52  72 NE5       29.90F
MALTA            N/A     61  44  53 N2          N/A

FORT PECK REPORTS


CITY           SKY/WX    TMP DP  RH WIND       PRES   REMARKS
FORT PECK        N/A     56  50  80 S2          N/A
THE PINES        N/A     60  49  66 SE3         N/A

SOUTHEAST MONTANA


CITY           SKY/WX    TMP DP  RH WIND       PRES   REMARKS
BILLINGS       CLOUDY    54  46  74 SE5       29.93S
MILES CITY     CLOUDY    60  51  72 CALM      29.90S
BAKER          LGT RAIN  56  52  86 N5        29.90S
LIVINGSTON     SUNNY     53  44  71 NW7       29.95F

CENTRAL MONTANA


CITY           SKY/WX    TMP DP  RH WIND       PRES   REMARKS
HAVRE          MOSUNNY   60  46  59 VRB3      29.90F
LEWISTOWN      SUNNY     56  45  66 VRB5      29.94S
GREAT FALLS    MOSUNNY   55  46  71 SW7       29.92F
CUT BANK       SUNNY     55  43  63 CALM      29.92F
HELENA         SUNNY     52  44  74 CALM      29.94F
BUTTE          SUNNY     47  40  76 CALM      29.98F
BOZEMAN        SUNNY     51  46  83 VRB3      29.97S

WESTERN MONTANA


CITY           SKY/WX    TMP DP  RH WIND       PRES   REMARKS
MISSOULA       MOSUNNY   53  41  63 SE3       29.93S
KALISPELL      NOT AVBL

NORTH DAKOTA


CITY           SKY/WX    TMP DP  RH WIND       PRES   REMARKS
WILLISTON      PTSUNNY   62  48  60 CALM      29.88S
DICKINSON      LGT RAIN  55  52  89 NE7       29.88S FOG
MINOT          PTSUNNY   63  49  60 CALM      29.86S
BISMARCK       LGT RAIN  58  56  93 N7        29.87R FOG

SOUTHERN SASKATCHEWAN


CITY           SKY/WX    TMP DP  RH WIND       PRES   REMARKS
REGINA         PTSUNNY   68  43  40 SW5       29.87F
MOOSE JAW      PTSUNNY   70  46  43 NW7       29.87F
ESTEVAN        PTSUNNY   66  48  52 CALM      29.87
SWIFT CURRENT  PTSUNNY   68  39  34 W5        29.90S



USA.gov is the U.S. government's official web portal to all federal, state and local government web resources and services.